Presure
118 117 150 117 156 137 127 127 126 96 113 139 119 129 108 127 121 106 129 113 137 122 100 140 105 123 129 99 122 135 147 113 137 115 142 113 135 130 152 140 172 153 199 123 109 121 126 164 129
137 130 108 136 118 140 128 152 184 119 114 126 111 123 123 107 129 118 136 120 115 125 124 121 103 130 117 99 124 141 140 109 136 129 131 126 136 127 109 137 117 115 159 107 125 151 157 128 159
138 124 122 113 137 111 162 106 146 134 98 143 137 109 122 134 120 125 119 138 127 129 131 115 119 114 125 133 117 135 146 151 107 134 131 144 148 95 102 156 130 121 104 116 106 122 124 157 115
130 136 138 107 160 115 141 131 138 122 131 109 98 130 143 142 146 140 120 109 118 124 110 144 97 124 134 137 119 110 126 139 151 121 141 113 127 137 115 103 205 133 104 93 126 128 190 195 125
140 129 133 129 150 129 107 90 97 126 92 98 116 122 118 142 113 112 131 137 130 116 99 118 117 127 131 137 103 123 142 102 147 126 144 162 103 113 199 184 114 118 88 124 114 121 191 119 113
129 141 175 183 134 133 135 127 180 135 119 131 135 124 137 143 133 143 122 148 125 128 125 122 128 132 113 126 136 144 136 110 139 96 150 134 159 116 116 145 121 124 118 150 125 155 204 145 209
133 113 124 137 273 141 131 134 125 133 145 148 140 150 132 118 125 115 118 134 119 122 116 92 132 136 140 144 137 134 132 133 130 123 120 162 116 119 183 181 183 131 187 141 116 194 176 194 195
150 142 148 126 146 143 147 157 141 143 162 127 146 129 138 129 142 131 142 130 127 125 128 124 136 144 140 137 102 99 130 132 134 150 204 173 130 128 130 119 135 137 121 123 128 194 187 202 185
147 136 158 146 140 141 160 120 149 233 136 123 134 109 129 131 136 136 125 138 132 119 137 129 138 137 140 140 139 142 142 152 153 188 125 159 114 165 193 200 118 123 124 184 194 190 206 189 201
116 133 122 135 212 134 156 152 139 135 171 152 121 137 134 113 113 128 139 129 111 116 127 131 126 132 138 128 125 126 135 139 183 179 196 140 190 203 151 118 127 124 183 191 201 200 204 197 207
122 139 133 159 116 216 114 143 156 104 123 144 113 139 136 147 124 126 122 138 136 126 125 139 138 124 125 127 129 131 115 179 191 160 196 193 127 118 123 125 179 195 194 198 198 212 207 201 202
144 146 114 132 140 156 143 150 112 132 119 136 147 124 112 124 125 117 109 123 130 133 122 116 126 138 141 140 130 155 185 189 192 193 201 139 157 120 191 188 193 191 206 205 210 203 204 202 209
137 240 139 129 147 115 137 127 127 151 136 133 130 103 128 126 122 129 123 137 134 132 138 126 129 126 138 142 150 196 191 190 188 192 193 119 146 195 191 194 198 211 209 201 196 200 206 216 216
256 142 165 163 123 145 151 114 105 114 139 138 141 120 124 153 120 120 175 240 227 138 136 131 140 125 192 194 195 194 193 197 196 131 114 188 195 194 204 208 207 213 205 202 208 209 229 239 229
141 121 131 128 142 213 130 135 143 140 182 127 126 131 232 127 132 135 246 119 128 134 144 133 157 121 196 209 201 195 193 193 192 197 198 192 198 216 216 209 206 207 205 233 229 253 232 232 241
116 225 129 124 118 146 218 147 137 147 123 129 138 137 157 140 137 129 163 241 235 220 189 246 253 213 201 199 204 203 204 206 207 215 220 219 210 210 205 204 214 231 228 237 229 239 237 227 213
122 147 127 138 233 150 129 130 137 141 133 135 134 228 229 141 184 205 236 233 226 189 221 233 239 232 231 225 222 223 228 223 219 208 205 201 202 206 223 221 231 224 231 231 226 212 207 211 209
138 221 165 228 202 127 130 140 142 139 136 135 213 242 240 233 232 233 197 226 229 226 220 218 216 212 210 209 207 205 204 203 203 204 207 221 221 218 223 222 227 222 215 207 210 213 208 206 210
227 226 228 191 142 230 240 246 249 134 215 214 212 143 221 120 228 221 224 229 227 227 226 224 218 217 216 215 214 215 217 224 224 217 217 224 223 224 217 211 204 212 213 220 255 252 250 241 242
227 223 221 226 208 218 219 223 224 200 220 226 226 224 228 118 227 226 224 224 222 218 218 226 215 219 218 217 217 218 216 216 216 215 216 214 208 206 213 213 221 236 246 249 252 262 260 222 217
216 223 225 217 217 217 213 222 223 226 197 228 171 115 115 165 218 217 221 220 215 164 126 215 216 223 223 217 218 222 219 212 208 204 207 212 209 213 228 226 224 227 227 229 230 221 217 217 213
225 222 217 217 217 218 225 227 217 218 182 124 119 131 220 202 216 215 214 121 124 224 228 214 220 213 222 214 211 204 207 210 204 202 218 229 231 229 226 222 216 216 216 213 209 211 214 209 205
221 217 213 223 220 227 221 220 205 134 137 133 213 213 208 212 219 225 127 118 222 218 221 222 213 212 202 204 211 192 185 212 206 207 217 221 215 214 219 219 211 213 216 205 203 206 208 205 211
220 226 229 217 221 214 207 206 133 214 211 207 202 223 222 211 226 219 137 112 124 160 194 202 200 205 205 194 209 208 211 205 205 203 199 202 220 226 221 219 214 214 214 202 209 204 204 202 203
219 220 221 209 156 204 198 205 212 171 180 229 211 211 216 208 111 222 187 174 129 198 200 203 208 201 204 205 201 203 203 201 202 212 213 216 218 216 212 215 215 214 207 212 211 211 205 200 206
209 205 160 209 208 210 209 208 210 224 214 214 206 201 231 205 209 202 205 194 200 204 208 203 204 201 204 200 204 205 200 193 193 205 206 206 213 220 221 217 209 210 211 208 208 209 208 222 271
211 199 205 126 201 207 207 221 217 216 232 245 228 213 205 204 207 199 192 204 206 200 201 199 204 202 204 203 195 195 194 195 199 199 209 206 209 218 221 222 221 218 216 205 212 238 273 276 277
205 171 196 124 125 219 214 213 214 225 212 210 200 203 201 206 191 203 198 189 202 199 199 203 195 196 200 194 191 192 199 194 195 201 208 210 218 226 216 213 215 216 221 231 240 274 273 260 239
227 133 150 219 217 217 226 227 213 211 209 200 200 202 198 193 201 194 203 196 200 196 201 196 201 197 197 189 194 192 190 194 195 209 222 226 214 211 210 209 224 216 229 256 263 260 243 230 235
219 223 217 216 231 228 219 212 210 204 203 199 198 205 196 191 204 198 199 200 207 202 195 194 192 197 193 192 191 198 200 195 208 217 209 206 205 207 220 221 225 227 257 259 246 239 227 229 293
Wind_Speed
56 56 51 49 58 60 58 61 48 29 45 47 46 53 33 53 50 29 48 51 58 51 39 55 45 57 56 41 53 57 67 55 57 58 62 61 61 61 75 70 83 74 85 64 51 61 70 74 69
49 66 31 63 48 61 57 53 53 54 44 54 33 39 47 30 46 43 52 54 57 56 60 53 37 57 50 44 55 59 60 56 61 60 63 64 63 61 56 66 59 58 75 50 68 72 73 70 76
70 60 59 39 65 34 64 30 56 57 29 39 64 38 50 63 45 45 51 58 62 67 64 52 47 48 56 57 48 62 66 70 53 61 63 72 72 47 54 68 65 66 52 63 57 69 69 77 64
74 70 71 42 53 31 66 44 57 34 60 41 31 39 61 61 54 55 62 45 63 66 48 66 34 53 66 68 53 55 57 65 73 62 68 63 66 68 64 58 82 75 57 53 74 74 88 91 68
76 64 73 65 58 59 39 25 33 58 27 35 38 48 39 58 43 44 62 64 66 60 36 63 56 59 67 68 45 58 70 51 72 64 69 76 56 60 70 81 69 72 51 72 65 67 89 69 69
64 70 60 56 69 66 57 59 60 60 41 52 50 56 51 55 58 61 58 60 69 72 73 74 76 72 52 60 67 76 61 58 64 48 77 68 73 71 71 80 76 73 68 78 74 82 95 80 92
72 35 50 73 41 54 71 41 59 68 67 64 63 48 64 51 57 45 53 65 61 75 59 41 77 77 74 76 70 68 61 61 64 66 69 91 70 73 85 93 92 72 94 74 71 97 87 96 95
76 70 64 54 71 75 73 58 69 67 66 39 59 58 61 57 62 57 63 65 69 75 80 65 82 85 75 74 46 45 66 68 68 84 82 94 71 71 74 67 75 71 67 69 74 104 93 99 90
76 75 62 62 76 71 46 35 72 46 59 46 61 43 51 45 55 55 56 71 75 61 84 80 83 78 79 77 74 79 78 73 90 89 63 83 61 91 101 95 67 69 71 98 104 100 101 95 95
29 65 33 60 40 59 37 75 43 51 59 66 43 61 56 38 39 60 65 66 56 61 76 78 70 75 81 64 60 62 76 79 100 99 92 75 101 94 79 68 73 71 97 106 109 108 103 101 99
33 69 67 65 42 37 38 68 64 38 50 68 38 62 54 67 47 55 46 73 79 68 66 88 88 68 69 72 75 76 59 96 97 82 95 99 68 67 72 75 99 105 109 112 106 104 104 99 99
71 78 40 56 63 73 54 72 35 57 38 63 65 49 45 51 55 50 49 58 74 78 64 60 72 85 90 90 76 88 91 97 94 97 100 74 81 70 98 101 105 108 117 110 106 102 99 99 97
50 30 63 44 59 31 60 37 54 70 59 56 52 37 42 54 52 62 57 72 70 76 84 69 74 70 91 93 92 93 95 94 97 97 99 70 82 102 105 105 110 108 106 101 98 99 102 97 95
29 60 31 50 32 63 64 42 44 45 63 60 66 46 50 49 50 55 59 51 59 78 81 77 89 68 84 88 91 94 96 98 101 74 69 96 103 106 113 109 102 103 100 103 102 102 93 81 83
28 35 36 38 60 34 36 44 66 61 42 48 49 55 52 55 61 63 39 57 63 71 84 78 81 67 80 89 90 91 91 92 96 100 102 97 102 101 98 96 95 96 97 94 91 77 83 79 74
43 31 33 36 43 68 37 62 49 68 45 54 61 58 54 63 61 57 57 35 38 46 69 50 54 73 79 83 87 90 92 96 97 99 95 90 90 90 90 92 94 88 87 82 84 77 76 74 76
35 58 40 50 31 66 44 40 49 58 53 56 53 35 36 54 46 42 33 38 40 60 43 45 51 57 61 68 72 73 74 75 76 78 79 84 86 89 86 85 82 82 79 77 76 79 81 80 80
43 33 48 30 30 41 46 56 65 60 59 49 29 30 31 29 30 32 39 37 37 41 44 46 48 51 54 57 62 65 68 71 74 77 81 79 79 80 77 77 75 77 78 80 79 79 81 83 82
33 30 23 30 52 24 20 20 23 50 31 38 38 52 34 39 33 36 38 38 39 41 43 46 49 54 57 60 64 67 68 65 66 68 70 70 69 69 72 75 78 78 79 78 77 78 79 80 80
28 26 25 26 26 22 23 23 25 31 29 33 34 36 34 40 31 33 36 37 36 36 39 41 44 45 48 50 52 54 56 58 59 61 63 66 71 73 73 75 75 73 72 72 72 70 68 76 78
30 26 25 20 23 24 25 26 26 25 29 28 33 39 41 35 31 33 34 34 34 46 57 41 43 43 44 46 47 46 47 53 56 62 67 67 71 72 71 71 72 72 74 71 69 75 77 76 80
27 23 20 19 25 24 23 20 20 25 30 39 40 45 30 33 30 32 34 50 55 36 35 38 38 41 38 41 45 51 51 52 61 65 61 62 62 66 69 71 74 75 76 77 79 80 80 81 83
23 21 19 22 24 22 22 17 23 37 41 42 24 27 27 33 33 32 46 51 33 33 31 31 36 38 46 47 46 59 62 52 58 61 60 62 66 70 72 74 77 78 79 80 83 84 84 88 92
24 22 23 22 22 20 20 14 31 21 24 27 32 25 26 30 28 28 41 49 59 50 39 40 45 46 48 55 47 49 51 55 58 64 70 71 68 67 69 74 77 79 81 86 86 89 90 91 95
22 21 23 20 24 20 23 26 25 27 28 18 31 21 30 29 43 23 31 40 63 40 42 44 42 49 48 47 51 52 55 58 65 67 67 68 69 71 73 76 78 82 86 88 91 93 95 96 100
19 21 21 17 18 24 24 27 25 21 26 24 29 29 24 25 27 31 31 40 39 40 41 43 44 47 48 52 53 55 58 65 69 70 73 73 74 76 77 80 84 86 90 93 96 99 102 106 108
21 21 20 25 24 25 28 24 22 24 22 20 25 22 27 30 30 35 42 38 39 43 44 46 44 49 52 52 56 59 64 69 72 74 76 76 77 80 81 82 85 87 91 94 99 105 108 106 107
23 26 24 28 32 26 26 25 23 21 23 23 28 28 31 31 39 37 40 46 41 46 47 46 49 52 55 58 63 65 68 73 77 78 79 80 83 84 84 88 92 95 99 104 107 105 104 104 98
24 26 27 27 26 25 21 20 23 25 25 28 29 30 34 40 39 44 40 43 43 47 46 52 51 53 56 63 66 70 74 77 79 82 84 84 85 87 90 92 99 99 108 108 104 104 102 95 100
29 27 27 28 22 21 22 24 23 24 27 29 32 31 39 45 39 42 44 45 44 46 50 54 57 55 60 66 71 75 77 81 83 84 83 85 88 92 98 100 105 109 108 102 104 102 97 101 121
Wind_Direction
260 259 243 265 269 248 258 259 263 256 269 258 270 272 269 276 285 267 266 286 270 278 280 272 276 279 276 281 283 282 283 278 282 276 285 281 279 276 288 283 292 289 289 289 288 290 289 289 286
260 242 259 241 255 238 254 256 272 262 263 273 268 263 281 266 270 284 264 272 290 287 288 273 281 280 280 278 280 280 279 277 281 276 280 278 283 284 293 294 293 290 291 288 289 292 289 290 292
254 247 261 259 241 260 252 250 256 250 263 251 256 264 271 271 292 280 286 273 285 282 280 278 283 281 283 283 274 283 284 287 288 280 274 285 288 293 292 290 293 291 289 291 290 291 290 285 284
251 238 239 247 235 236 250 241 242 250 259 260 277 268 256 262 261 267 286 275 285 285 275 276 277 281 286 285 277 276 278 283 286 272 285 283 285 284 291 295 289 291 291 291 288 291 299 301 287
236 247 247 254 238 260 259 261 252 263 266 264 271 274 271 260 267 279 265 266 271 289 283 284 280 289 285 286 284 284 287 288 287 280 288 289 292 293 290 290 291 290 291 289 289 290 299 286 283
250 240 237 238 252 247 252 265 259 258 257 260 262 283 268 254 264 258 269 263 273 277 278 283 284 285 285 285 287 288 288 280 291 291 291 288 285 284 286 288 287 288 289 289 289 294 299 291 299
250 250 260 247 234 237 258 255 267 265 263 251 262 253 271 276 275 273 275 264 281 278 281 274 284 285 284 284 289 291 289 286 283 277 280 293 284 286 286 296 290 291 294 292 287 296 295 293 298
224 236 230 249 241 253 243 234 255 256 251 279 255 272 260 271 266 278 260 268 271 274 280 286 282 284 291 292 287 285 289 290 291 293 280 289 283 284 287 288 288 287 290 290 290 295 295 294 295
229 241 229 237 245 251 258 257 255 235 273 263 270 263 270 277 268 267 274 261 267 282 274 285 284 292 292 291 292 292 294 288 294 276 287 285 286 288 285 285 292 293 292 292 292 294 293 293 295
241 247 250 239 226 256 261 256 256 264 258 248 274 263 272 268 272 282 269 272 278 281 283 285 291 293 293 293 292 292 295 293 279 284 270 290 283 280 286 290 293 292 291 291 291 291 292 293 292
245 243 253 243 243 213 255 272 257 257 265 261 265 265 274 264 277 279 275 270 272 281 285 277 282 293 293 295 295 295 291 278 272 280 272 276 290 293 294 294 286 287 285 289 289 291 291 292 294
234 239 240 263 264 248 257 253 251 273 265 268 262 262 276 285 281 276 272 282 281 280 284 282 290 286 285 288 292 282 267 270 269 274 271 287 283 295 281 284 284 286 286 285 289 290 291 290 288
252 197 252 249 253 244 263 257 270 257 270 260 279 264 273 275 277 282 279 276 278 280 279 288 288 289 288 286 283 262 267 268 272 273 274 293 287 280 281 283 283 283 284 286 288 288 287 287 288
174 251 221 246 251 262 258 253 263 263 272 262 270 272 275 265 272 275 273 242 244 275 280 285 282 288 255 257 259 263 264 265 265 290 293 279 278 279 279 278 282 284 284 285 286 285 285 285 286
243 239 259 268 260 229 262 270 262 265 258 277 274 281 244 275 278 278 253 275 282 283 275 281 272 291 253 251 254 259 266 270 270 270 271 275 275 277 279 281 280 280 282 285 284 288 286 288 290
249 201 261 254 257 260 247 263 270 261 267 277 278 277 270 275 276 273 274 252 253 260 268 250 249 250 254 257 258 261 262 263 265 268 272 273 276 277 279 281 282 284 284 287 288 289 289 288 288
249 248 258 263 217 256 260 262 273 266 270 272 273 253 257 271 268 267 256 254 257 266 253 253 254 253 254 255 258 261 264 267 270 272 275 276 278 280 281 282 286 286 288 289 289 290 290 290 288
253 209 248 219 239 257 263 269 267 265 266 268 258 263 263 262 262 254 265 261 257 254 256 259 259 261 263 263 265 267 268 270 273 275 275 277 278 279 283 284 285 286 287 288 285 284 284 285 284
210 219 222 239 258 240 243 244 230 263 238 244 260 273 264 277 260 265 262 261 258 257 258 258 259 258 261 264 265 267 270 273 275 275 277 281 282 283 283 285 285 282 284 288 295 295 295 295 295
216 217 225 229 240 234 238 238 239 248 249 256 259 262 266 279 266 265 266 267 269 269 268 267 270 268 267 267 269 272 275 278 280 281 280 280 283 283 283 286 292 298 299 298 298 297 296 292 292
223 222 223 229 237 241 244 245 251 259 265 264 269 275 276 275 270 272 272 273 273 284 286 270 269 272 273 275 278 278 278 278 280 281 283 286 288 291 297 298 298 298 296 295 295 292 292 292 292
227 231 236 239 245 246 256 257 269 260 264 268 271 275 275 275 273 272 270 290 289 268 272 274 275 278 277 279 279 280 281 286 289 289 297 301 301 301 299 297 295 295 293 292 291 293 293 291 291
237 244 254 249 248 259 255 249 257 271 272 275 266 270 273 275 270 269 290 293 272 274 273 274 278 278 279 279 285 284 290 295 296 298 301 303 301 300 297 295 293 294 293 293 293 294 296 298 298
242 245 242 238 243 243 254 254 271 265 260 266 266 282 279 274 272 276 290 293 291 287 281 278 279 277 280 284 295 300 301 301 301 298 297 298 302 301 295 293 294 294 295 296 296 298 298 298 299
234 236 235 232 255 243 248 255 257 268 265 223 251 292 274 275 290 271 282 285 290 280 280 277 284 286 292 296 296 299 300 301 301 303 302 304 303 299 297 298 298 298 298 298 297 295 298 301 299
223 231 250 241 250 245 246 246 259 242 259 256 266 264 263 271 274 278 272 282 279 276 280 283 291 294 298 299 302 303 301 299 298 302 302 303 305 306 304 302 300 300 299 299 301 300 300 298 306
241 243 241 273 248 245 254 256 257 257 242 233 244 261 269 270 269 276 283 274 279 283 291 293 299 299 298 300 301 302 300 299 300 300 304 301 303 306 306 305 302 300 300 301 301 305 310 310 309
247 249 249 274 280 238 237 246 250 241 253 257 264 265 268 268 280 270 276 286 289 292 295 298 298 300 299 302 302 301 300 298 299 302 304 306 308 309 307 305 305 306 306 308 309 312 312 309 308
236 267 265 241 237 238 237 233 240 245 252 262 265 268 272 276 273 282 285 289 292 294 296 297 298 300 299 300 298 298 298 299 302 306 309 311 310 309 308 307 308 308 311 312 313 312 311 312 312
236 236 237 240 234 229 235 246 251 263 264 269 269 267 273 282 286 292 296 298 300 299 298 299 301 300 297 296 297 299 301 302 308 310 309 309 308 308 310 311 312 312 313 312 310 312 314 315 313